Bismarck, ND

10:55 PM CST on January 21, 2018 (GMT -0600)
Bismarck Municipal

Weather History for KBIS - September, 2013

Change the Weather History Date:

Monday, September 30, 2013

  Actual Average Record
Temperature  
Mean Temperature 60 °F 52 °F  
Max Temperature 77 °F 66 °F 95 °F (1989)
Min Temperature 42 °F 39 °F 10 °F (1876)
Degree Days  
Heating Degree Days 5 13  
Month to date heating degree days 103 230  
Since 1 July heating degree days 131 286  
Cooling Degree Days 0 0  
Month to date cooling degree days 75 38  
Year to date cooling degree days 555 519  
Growing Degree Days 10 (Base 50)    
Moisture  
Dew Point 46 °F    
Average Humidity 64    
Maximum Humidity 93    
Minimum Humidity 35    
Precipitation  
Precipitation T in 0.04 in 0.58 in (1926)
Month to date precipitation 4.36 1.59  
Year to date precipitation 20.67 15.40  
Snow  
Snow 0.00 in - - ()
Month to date snowfall 0.0  
Snow Depth 0.00 in    
Sea Level Pressure  
Sea Level Pressure 29.57 in    
Wind  
Wind Speed 8 mph (SW)    
Max Wind Speed 31 mph    
Max Gust Speed 44 mph    
Visibility 10 miles    
Events Rain    
T = Trace of Precipitation, MM = Missing Value Source: NWS Daily Summary

Daily Weather History Graph

Daily Weather History Graph

Search for Another Location

Airport or City:

Trip Planner

Search our weather history database for the weather conditions in past years. The results will help you decide how hot, cold, wet, or windy it might be!

Date:

Astronomy

Sep. 30, 2013 Rise Set
Actual Time 7:40 AM CDT 7:24 PM CDT
Civil Twilight 7:10 AM CDT 7:54 PM CDT
Nautical Twilight 6:35 AM CDT 8:29 PM CDT
Astronomical Twilight 5:59 AM CDT 9:05 PM CDT
Moon 3:05 AM CDT (9/30) 5:07 PM CDT (9/30)
Length of Visible Light 12h 43m
Length of Day
11h 43m
Waning Crescent, 19% of the Moon is Illuminated
Sep 30
Waning Crescent
Oct 4
New
Oct 11
First Quarter
Oct 18
Full
Oct 26
Last Quarter

Hourly Weather History & Observations

Time (CDT) Temp. Windchill Dew Point Humidity Pressure Visibility Wind Dir Wind Speed Gust Speed Precip Events Conditions
12:52 AM 55.9 °F - 48.0 °F 75% 29.57 in 10.0 mi West 4.6 mph - N/A   Clear
1:52 AM 51.1 °F - 46.0 °F 83% 29.58 in 10.0 mi West 5.8 mph - N/A   Clear
2:52 AM 51.1 °F - 46.9 °F 86% 29.58 in 10.0 mi SSW 3.5 mph - N/A   Clear
3:52 AM 48.9 °F - 44.1 °F 83% 29.59 in 10.0 mi South 3.5 mph - N/A   Clear
4:52 AM 48.9 °F - 44.1 °F 83% 29.60 in 10.0 mi West 3.5 mph - N/A   Clear
5:52 AM 48.0 °F - 42.1 °F 80% 29.61 in 10.0 mi WSW 3.5 mph - N/A   Clear
6:52 AM 45.0 °F 43.5 °F 39.9 °F 82% 29.61 in 10.0 mi West 3.5 mph - N/A   Clear
7:52 AM 43.0 °F - 39.9 °F 89% 29.62 in 10.0 mi Calm Calm - N/A   Clear
8:52 AM 46.9 °F - 44.1 °F 90% 29.61 in 10.0 mi SE 3.5 mph - N/A   Clear
9:52 AM 54.0 °F - 44.1 °F 69% 29.60 in 10.0 mi Calm Calm - N/A   Clear
10:52 AM 61.0 °F - 44.1 °F 54% 29.58 in 10.0 mi Calm Calm - N/A   Clear
11:52 AM 64.9 °F - 43.0 °F 45% 29.58 in 10.0 mi SW 3.5 mph - N/A   Clear
12:52 PM 66.9 °F - 46.9 °F 49% 29.55 in 10.0 mi SE 6.9 mph - N/A   Clear
1:52 PM 73.0 °F - 45.0 °F 37% 29.52 in 10.0 mi SSW 9.2 mph - N/A   Clear
2:52 PM 72.0 °F - 48.0 °F 43% 29.49 in 10.0 mi South 9.2 mph - N/A   Clear
3:52 PM 75.9 °F - 46.0 °F 35% 29.47 in 10.0 mi SSW 13.8 mph - N/A   Clear
4:52 PM 73.9 °F - 45.0 °F 35% 29.46 in 10.0 mi SSW 10.4 mph - N/A   Clear
5:52 PM 73.0 °F - 46.9 °F 39% 29.46 in 10.0 mi South 11.5 mph - N/A   Partly Cloudy
6:52 PM 71.1 °F - 48.0 °F 44% 29.47 in 10.0 mi South 8.1 mph - N/A   Scattered Clouds
7:52 PM 66.9 °F - 46.0 °F 47% 29.55 in 10.0 mi West 27.6 mph 38.0 mph N/A   Overcast
7:59 PM 66.0 °F - 46.0 °F 48% 29.56 in 10.0 mi WNW 27.6 mph 35.7 mph N/A   Mostly Cloudy
8:52 PM 57.9 °F - 48.0 °F 70% 29.61 in 10.0 mi NW 21.9 mph 38.0 mph 0.00 in Rain Light Rain
9:52 PM 55.9 °F - 48.9 °F 77% 29.64 in 10.0 mi NW 9.2 mph 18.4 mph 0.00 in Rain Light Rain
10:52 PM 54.0 °F - 48.9 °F 83% 29.66 in 10.0 mi WSW 10.4 mph - 0.00 in   Mostly Cloudy
11:52 PM 52.0 °F - 48.0 °F 86% 29.67 in 10.0 mi SW 5.8 mph - N/A   Clear